Theta_e
283 282 282 281 280 280 279 279 279 278 277 277 277 276 276 275 274 274 273 273 273 272 273 273 272 272 272 272 272 272 272 274 276 276 276 277 277 278 278 277 277 278 278 278 278 278 278 278 278 278 277 277 277 277 277 277 277 277 277 277 277 277 277 278 278 278 279 281 282 283 284 286 287 288 289 289 290 290 290 291 292 294 295 295 293
281 281 281 280 280 279 279 278 278 277 277 276 276 275 275 274 274 273 273 273 272 272 272 272 271 271 272 272 272 272 272 274 275 275 275 276 276 276 277 277 277 277 277 277 277 277 277 277 277 277 277 277 277 277 277 277 277 277 277 277 277 277 277 277 277 278 279 279 280 282 284 286 287 288 289 290 289 290 290 291 291 292 294 295 293
281 281 281 280 279 279 279 278 277 277 276 276 276 275 275 274 273 273 272 272 272 272 272 271 271 271 271 271 271 271 272 273 274 274 274 275 275 274 275 275 275 275 276 276 276 276 276 276 276 276 276 276 276 276 276 276 276 276 276 276 276 277 277 277 277 277 277 278 279 281 283 285 286 287 289 289 288 289 291 291 291 291 292 293 293
283 281 279 279 279 278 278 278 277 277 276 276 275 275 274 274 273 272 272 272 271 271 271 270 271 271 270 270 271 271 272 273 274 273 273 273 274 273 273 274 274 274 275 275 275 275 276 276 276 276 276 276 275 275 275 275 276 276 276 276 276 276 276 276 276 276 276 277 278 280 282 284 285 286 287 287 287 288 290 290 291 292 292 292 293
283 281 279 279 279 278 278 277 277 276 276 275 275 274 274 273 273 272 272 272 271 271 270 270 270 270 270 270 270 270 271 272 272 272 272 272 272 272 272 272 272 273 273 274 274 274 274 275 275 275 275 275 275 275 275 275 275 275 275 275 276 276 276 276 276 276 276 276 277 279 281 283 283 284 285 285 286 287 288 289 291 293 292 292 292
281 280 279 279 278 278 278 277 276 276 275 275 275 274 274 273 273 272 272 272 271 270 270 270 270 270 270 270 270 270 270 271 271 271 271 271 271 271 271 271 272 272 272 273 273 273 273 273 273 273 274 274 274 274 274 274 274 274 275 275 275 275 275 276 276 276 276 276 276 277 279 280 281 282 283 284 286 286 286 288 290 291 291 291 292
281 280 279 279 278 278 278 277 276 276 275 275 275 274 274 273 273 272 272 272 271 270 270 270 269 269 269 270 270 270 270 270 270 270 270 270 271 270 271 271 271 271 272 272 272 272 272 272 272 272 272 272 273 273 273 273 274 274 274 274 274 274 274 274 274 275 275 275 276 276 277 278 279 281 282 284 285 286 287 287 288 289 289 290 291
282 281 279 278 278 278 278 277 276 275 275 275 274 274 274 273 273 272 272 271 271 270 270 269 269 269 269 269 269 269 269 269 269 269 270 270 270 270 270 271 271 271 271 271 271 271 271 271 271 271 271 272 272 272 272 273 273 273 273 273 273 274 274 274 274 274 275 275 275 276 276 277 278 279 281 283 284 285 286 286 287 287 288 289 289
281 280 279 278 278 278 277 276 276 276 275 274 274 274 273 273 273 272 272 271 271 270 270 269 269 269 269 269 269 269 269 269 269 269 269 269 269 270 270 270 270 270 270 270 270 270 270 270 270 270 271 271 271 272 272 272 272 272 272 272 273 273 273 273 273 274 274 275 275 275 276 276 276 278 280 282 284 285 285 286 286 287 287 288 288
280 278 278 279 278 278 277 276 276 276 275 274 274 274 273 273 273 272 271 271 271 270 270 269 269 269 269 269 269 269 269 269 269 269 269 269 269 270 270 269 270 269 269 269 269 269 269 270 270 270 270 270 271 271 271 271 271 271 271 272 272 272 272 273 273 273 274 275 275 276 276 276 276 277 280 282 284 285 285 285 286 286 286 287 288
281 278 278 278 278 278 277 276 276 276 275 274 274 273 273 273 272 272 271 271 271 270 270 269 269 269 268 268 268 268 268 268 269 269 269 269 269 269 269 269 269 269 269 269 269 269 269 269 269 270 270 270 270 270 270 270 270 270 271 271 271 271 272 272 272 273 273 274 275 275 275 276 276 277 279 281 283 284 284 285 285 286 286 286 287
282 279 278 278 278 277 277 276 276 275 275 274 274 273 273 272 272 271 271 271 271 270 269 269 269 268 268 268 268 268 268 268 268 268 269 269 269 269 269 269 269 269 269 269 269 269 269 269 269 269 269 269 269 269 269 269 270 270 271 271 271 271 271 272 272 272 273 274 274 275 275 275 275 276 277 279 281 282 283 284 285 286 286 286 287
282 280 278 277 277 277 277 277 276 275 274 274 273 273 272 272 271 271 271 270 270 270 269 269 268 268 268 268 268 268 268 268 268 268 269 269 269 269 269 269 269 268 268 269 268 269 269 269 269 269 269 269 269 269 269 269 269 269 270 270 270 270 271 272 272 273 273 274 274 274 275 275 275 275 276 277 279 281 282 283 284 285 285 285 286
281 280 278 277 277 277 277 276 276 275 274 273 273 272 272 271 271 271 270 270 270 269 269 269 268 268 268 267 267 268 268 268 268 268 269 269 269 269 268 268 268 268 268 268 268 268 268 268 268 268 269 269 269 269 269 269 269 269 269 269 269 270 270 271 272 273 273 273 273 273 273 274 274 275 275 276 278 280 281 282 283 283 284 284 285
280 279 278 277 277 277 276 276 275 274 274 273 273 272 272 271 271 270 270 270 269 269 268 268 268 268 267 267 267 267 268 268 268 268 268 268 268 268 268 268 268 268 268 268 268 268 268 268 268 268 268 268 268 269 269 269 269 269 269 269 269 269 270 270 271 271 272 272 272 272 272 273 273 274 274 275 277 279 280 281 282 282 283 283 284
279 279 278 277 277 277 276 275 275 274 274 273 273 272 271 271 270 270 269 269 269 268 268 268 268 267 267 267 267 267 267 268 268 268 268 267 268 268 268 268 268 268 268 268 268 268 268 268 268 268 268 268 268 268 268 268 268 268 268 268 269 269 269 269 270 270 271 271 271 271 271 272 273 273 274 275 276 277 279 280 281 281 282 283 284
280 280 278 277 277 276 275 275 275 274 274 273 273 272 271 271 270 270 269 269 268 268 268 268 267 267 267 267 267 267 267 267 267 267 267 267 267 267 267 268 268 268 268 268 268 268 268 268 268 268 268 268 268 268 268 268 268 268 268 268 268 268 269 269 269 270 270 270 270 270 271 271 272 273 273 274 275 276 278 279 279 280 281 282 283
280 279 278 277 276 276 275 275 274 274 274 273 273 272 271 271 270 270 269 268 268 268 267 267 267 267 267 267 267 267 267 267 267 267 267 267 267 267 267 267 267 267 268 268 268 268 267 267 268 268 268 268 268 268 268 268 268 268 268 268 268 268 268 268 269 269 269 269 270 270 270 271 272 273 273 274 275 276 277 278 279 279 280 280 281
280 279 278 277 276 276 275 275 274 274 274 273 273 272 271 271 270 269 269 268 268 268 267 267 267 267 267 267 267 267 266 267 267 267 266 266 266 267 267 267 267 267 267 267 267 267 267 267 267 267 268 268 268 268 268 268 268 268 268 268 268 268 268 268 268 268 269 269 269 269 269 270 271 272 273 274 274 275 276 277 278 279 279 279 280
279 278 278 276 276 276 276 275 275 274 273 273 272 272 271 271 270 269 269 268 268 268 267 267 267 267 266 266 266 266 266 266 266 266 266 266 266 266 266 267 267 267 267 267 267 267 267 267 267 267 268 268 268 268 268 268 268 268 268 268 268 268 268 268 268 268 268 268 269 269 269 269 270 271 271 272 273 274 275 276 277 278 279 279 280
279 278 278 276 276 276 276 275 275 274 273 273 272 272 271 270 270 269 269 268 267 267 267 267 267 267 266 266 266 266 266 266 266 266 266 266 266 266 266 267 267 267 266 266 266 266 266 267 267 267 267 267 268 268 268 268 268 268 268 268 268 268 268 268 268 268 268 268 268 269 269 269 269 270 270 271 272 273 273 274 275 277 278 278 279
279 278 277 276 275 276 275 275 274 273 273 272 272 271 271 270 270 269 268 267 267 267 267 267 266 266 266 266 266 266 266 265 265 265 265 265 266 266 266 266 266 266 266 266 266 266 266 266 267 267 267 267 268 268 268 268 268 268 268 268 268 268 268 268 268 268 268 268 268 268 269 269 269 270 270 271 271 272 272 273 274 275 276 277 278
279 278 277 276 276 276 275 275 274 273 273 272 272 271 271 270 269 269 268 267 267 267 266 266 266 266 266 266 265 265 265 265 265 265 265 265 265 266 266 266 266 265 266 266 266 266 266 266 266 267 267 267 267 268 268 268 268 268 268 268 268 268 268 268 268 268 268 268 268 268 268 268 269 269 270 270 271 272 272 273 273 274 275 276 277
279 278 276 276 275 275 274 274 273 273 273 272 272 271 270 270 269 269 268 267 267 267 266 266 266 265 265 265 265 265 265 265 265 265 265 265 265 265 265 265 265 265 265 265 265 265 265 266 266 266 267 267 267 267 267 268 268 268 268 268 268 268 268 268 268 268 268 268 268 268 268 268 268 269 269 270 270 271 271 272 273 274 275 276 277
279 278 277 276 274 274 274 273 273 273 273 272 272 271 270 270 269 268 268 267 267 266 266 265 265 265 265 265 265 265 264 264 264 264 265 265 265 265 265 265 265 265 265 265 265 265 265 265 266 266 266 267 267 267 267 267 268 268 268 268 268 268 268 268 268 268 268 268 268 268 268 268 269 269 269 269 270 270 270 271 271 272 273 275 276
279 278 278 276 275 274 273 273 273 273 273 272 271 271 270 269 269 268 267 267 266 266 265 265 265 265 265 264 264 264 264 264 264 264 265 265 264 264 264 264 264 264 264 264 264 264 265 265 265 266 266 266 267 267 267 267 267 268 268 268 268 268 268 268 268 268 268 268 268 268 268 268 268 269 269 269 269 269 270 270 270 271 272 274 276
279 278 278 277 275 274 273 273 273 272 272 272 271 271 270 269 268 267 267 266 266 266 265 265 265 264 264 264 264 264 264 264 264 264 264 264 264 264 264 264 264 264 263 264 264 264 264 264 265 265 266 266 266 267 267 267 267 268 268 268 268 268 268 268 268 268 268 268 268 268 268 268 268 268 268 269 269 269 269 269 270 270 271 272 274
279 278 278 277 276 275 273 273 272 272 272 271 271 270 269 269 268 267 267 266 265 265 265 265 264 264 264 264 264 264 264 264 264 264 264 264 264 264 263 263 263 263 263 263 263 263 264 264 264 265 265 265 266 266 267 267 268 268 268 268 269 269 268 268 269 268 268 268 268 268 268 268 268 268 268 268 268 269 269 269 269 270 270 271 273
280 279 278 277 277 275 274 273 272 272 272 271 270 270 269 268 268 267 266 266 265 265 265 264 264 264 264 264 264 264 263 263 263 263 263 263 263 263 263 263 262 262 262 263 263 263 263 263 264 264 265 265 266 266 267 268 268 269 269 269 269 270 269 269 269 269 269 269 269 269 269 268 268 268 269 269 269 269 269 269 269 269 270 270 272
281 279 278 277 277 276 274 273 273 272 271 271 270 269 269 268 267 267 266 266 265 265 264 264 264 264 264 263 263 263 263 263 263 263 263 263 263 262 262 262 262 262 262 262 263 263 263 263 264 264 265 265 266 266 267 268 270 270 271 271 271 271 271 271 270 270 270 269 269 269 269 269 269 269 269 269 270 270 270 270 270 270 270 271 271
282 280 279 277 277 276 274 273 273 272 272 271 270 270 269 268 267 267 266 265 265 265 264 264 264 264 263 263 263 263 263 263 263 263 263 262 262 262 262 262 261 262 262 262 262 263 263 263 264 264 265 266 266 267 268 269 271 272 273 273 273 273 272 272 271 271 271 270 270 270 270 269 269 269 269 270 270 270 271 271 272 272 272 272 272
283 281 279 278 278 276 275 273 273 273 272 271 270 269 269 268 267 267 266 266 265 264 264 264 263 263 263 263 262 262 262 262 262 262 262 262 261 261 261 261 261 261 262 262 262 262 263 263 264 265 266 266 268 269 270 270 272 274 275 276 276 275 274 273 273 272 271 271 271 270 270 270 270 270 270 270 270 270 271 271 272 273 273 273 273
284 283 281 280 278 276 275 274 273 273 272 272 271 270 269 268 267 267 266 265 265 264 264 264 263 263 262 262 262 262 262 262 262 262 261 261 261 261 261 261 261 261 261 262 262 262 263 264 265 266 266 267 269 270 271 271 273 275 276 277 278 277 276 275 275 274 273 272 272 271 271 270 270 270 270 270 270 270 270 271 272 272 273 273 274
285 283 281 280 278 276 275 274 274 274 273 272 271 270 269 268 267 266 266 265 265 264 264 263 263 263 262 262 262 262 262 261 261 261 261 260 260 260 260 261 261 261 261 262 262 262 263 264 265 266 267 267 269 271 272 272 274 276 278 278 279 279 278 277 276 275 275 274 273 272 272 271 271 270 270 270 270 270 270 270 271 271 271 272 273
285 283 282 279 277 276 275 274 274 274 273 271 270 269 269 268 267 266 266 265 264 264 263 263 263 262 262 262 261 261 261 261 261 261 260 260 260 260 260 260 260 261 261 262 262 263 264 265 266 266 267 268 270 272 272 273 275 277 278 278 278 279 279 278 277 277 276 275 274 273 273 272 272 272 271 271 271 271 271 270 270 270 271 271 271
285 283 282 279 277 276 275 275 274 273 272 271 270 269 268 267 267 266 265 265 264 264 263 263 262 262 262 261 261 261 261 260 260 260 260 260 260 260 260 260 260 261 261 262 263 263 264 265 266 267 267 268 270 272 272 274 276 278 278 277 277 277 278 278 278 277 276 276 276 274 274 273 273 273 273 272 272 272 271 271 271 271 271 271 271
284 282 281 279 278 277 276 275 274 272 271 271 270 269 268 267 266 266 265 264 264 263 263 262 262 262 261 261 261 260 260 260 260 259 259 259 259 259 260 260 260 261 261 262 263 264 264 265 266 267 268 268 270 272 273 275 276 277 278 277 276 276 276 277 277 277 277 277 276 276 275 274 274 274 274 274 273 273 273 272 271 271 271 271 271
282 281 279 278 277 276 276 275 273 272 271 271 269 268 267 267 266 265 265 264 264 263 263 262 262 262 261 261 261 260 260 260 259 259 259 259 259 259 260 260 260 261 261 262 263 264 265 265 266 267 268 268 270 272 273 274 275 276 277 277 276 275 276 276 276 277 277 277 277 277 277 276 275 275 276 275 274 274 274 273 272 272 271 271 272
281 280 278 277 277 276 275 273 272 272 271 270 269 268 267 266 265 265 264 264 263 263 263 263 262 262 261 260 260 260 259 259 259 259 259 259 259 259 260 260 260 261 262 262 263 263 264 266 267 268 268 269 270 272 273 274 275 275 276 276 276 275 276 276 275 276 277 277 277 277 277 277 277 277 277 277 276 276 276 275 274 273 272 272 272
279 278 278 277 276 274 273 272 272 272 271 270 269 268 267 266 265 265 264 264 264 264 263 263 262 261 261 260 260 259 259 259 259 259 259 259 259 259 260 260 261 261 262 262 263 264 264 266 267 268 269 270 271 272 272 273 274 274 275 275 276 275 275 275 276 276 277 276 276 276 277 277 277 277 278 278 278 278 278 277 276 275 274 274 274
278 278 277 276 275 273 273 273 273 272 271 270 269 267 266 266 265 264 264 265 265 264 263 262 261 261 260 260 259 259 259 258 259 258 259 259 260 260 260 261 261 262 262 263 264 264 265 266 267 268 269 271 272 272 272 272 272 273 274 274 274 274 275 275 276 276 276 275 275 276 277 277 276 276 277 277 278 279 279 279 278 277 276 276 276
278 277 276 275 273 273 273 273 273 272 270 270 268 267 266 266 265 265 266 266 265 264 263 262 261 260 260 259 259 259 259 258 259 259 259 260 260 261 261 261 262 262 263 263 264 265 265 266 268 269 270 271 272 271 271 271 271 272 273 273 273 274 274 275 275 276 275 275 275 276 276 275 275 276 277 277 278 279 279 279 279 279 278 278 277
277 276 275 274 273 272 272 272 272 271 270 269 268 267 266 265 265 266 267 266 264 263 262 261 261 260 260 259 259 259 258 258 259 259 259 260 261 261 261 262 262 262 263 264 264 265 266 266 268 270 270 271 271 271 270 270 270 271 272 272 273 274 274 275 275 275 275 275 275 275 275 274 275 276 277 277 278 279 279 279 280 280 280 280 279
277 276 275 274 273 272 272 272 271 270 270 269 268 267 266 265 266 267 266 265 264 263 262 261 260 260 259 259 259 258 258 259 259 260 260 260 261 261 261 262 263 263 263 264 265 265 265 266 267 269 270 271 270 270 269 269 270 270 271 272 273 273 274 274 274 274 274 274 274 275 275 275 276 276 277 278 278 278 279 279 279 280 280 280 280
278 276 275 274 273 272 271 271 270 270 269 269 268 267 266 265 267 267 265 264 264 263 261 261 260 260 259 259 258 258 259 259 259 260 260 260 261 261 262 262 263 263 263 264 265 265 265 266 267 269 270 270 270 269 269 269 269 270 271 271 272 273 273 273 273 274 274 274 275 275 275 275 276 276 277 277 277 278 278 278 279 279 279 280 280
278 276 275 274 273 272 271 271 270 269 269 269 268 267 267 267 268 266 265 265 264 262 261 261 260 260 259 259 258 258 259 259 260 260 260 260 261 261 262 262 263 263 264 264 265 265 266 267 268 269 270 270 269 269 269 269 269 270 271 271 272 273 273 273 273 274 274 274 275 274 274 274 274 275 275 275 275 276 277 277 278 279 280 280 280
278 277 276 274 272 272 271 271 270 269 269 268 268 267 268 268 267 266 265 264 263 262 261 260 260 260 259 258 258 258 259 259 260 260 260 261 261 262 262 263 263 264 264 265 265 266 267 268 269 269 269 269 269 268 269 269 270 271 271 272 272 272 272 273 273 274 274 274 273 273 273 273 273 273 274 274 274 275 275 276 277 278 278 279 280
280 278 276 274 272 272 271 271 270 270 269 268 268 268 268 267 266 265 265 264 263 262 261 260 260 259 259 258 258 258 258 259 260 260 261 261 262 262 262 263 264 265 265 265 266 267 267 269 269 269 268 268 268 268 269 270 270 271 272 272 272 272 272 273 273 273 273 272 272 271 271 271 271 272 272 272 272 273 273 274 274 275 276 277 279
281 278 276 274 273 272 272 271 271 270 269 268 268 268 267 267 266 265 264 263 263 262 261 260 259 259 258 258 258 258 258 259 259 260 261 261 262 262 263 264 264 265 266 267 268 268 269 269 269 268 268 268 268 269 269 270 271 271 271 271 272 272 272 272 272 272 271 271 270 269 269 269 269 269 269 269 270 270 271 272 272 273 274 275 276
281 279 276 274 273 273 272 271 271 271 269 269 268 268 267 266 265 265 264 263 263 262 260 260 259 258 258 258 258 258 258 259 259 260 260 261 262 262 263 264 265 266 267 268 269 269 269 269 269 268 268 268 268 269 270 270 271 271 270 271 272 271 271 271 271 270 270 269 268 267 266 266 266 266 267 267 268 268 269 270 270 271 272 272 273
281 279 276 274 273 273 272 271 271 270 269 269 268 267 266 266 265 264 263 263 263 261 260 260 259 258 258 258 258 258 258 259 259 259 260 261 262 262 263 264 265 266 267 268 268 268 268 268 268 268 268 268 269 269 270 270 270 270 270 270 271 270 269 269 269 269 268 267 265 265 264 264 264 265 264 265 265 266 266 267 268 269 270 271 271
Wind_Speed
5 7 10 7 2 1 3 4 6 8 10 13 14 14 15 17 19 20 21 22 23 24 21 18 22 23 21 20 21 22 22 19 16 16 15 15 15 15 15 14 11 11 12 12 13 12 11 10 11 15 16 16 15 14 15 16 17 20 22 24 25 26 26 26 29 30 26 24 29 31 29 23 17 15 14 14 15 18 20 23 25 25 27 27 27
6 7 8 3 2 2 4 5 7 8 9 12 13 13 15 18 19 19 20 21 22 21 17 17 20 20 18 19 20 21 20 16 16 17 16 16 15 15 15 15 14 15 14 9 7 8 9 9 11 14 15 15 15 15 15 15 17 19 20 22 24 23 22 23 27 26 21 20 21 19 22 23 16 10 9 10 11 14 15 18 22 25 28 28 27
5 6 6 2 4 3 3 5 6 6 8 10 12 14 16 18 18 18 19 21 21 19 16 18 18 16 17 19 19 20 18 14 13 14 16 16 16 16 16 17 17 17 17 14 12 11 11 11 10 11 12 14 15 15 15 15 15 16 17 19 22 23 21 22 25 21 18 21 16 8 9 14 12 8 10 17 19 15 11 12 17 22 26 28 27
5 5 5 5 5 4 4 4 4 6 8 10 12 14 15 16 16 16 18 20 21 19 17 18 16 15 17 18 18 18 16 13 12 13 15 16 17 17 17 18 19 19 18 17 17 15 15 14 12 11 12 13 13 14 15 15 15 14 15 17 18 20 21 22 23 21 20 18 11 6 6 6 5 7 15 25 24 13 10 14 14 17 21 24 27
4 5 6 7 6 6 4 3 4 6 8 9 11 13 14 14 15 16 17 20 20 18 19 18 15 16 18 17 17 17 15 13 13 15 17 18 18 19 20 20 20 20 19 19 18 18 17 17 16 15 15 14 15 16 16 16 16 14 14 15 15 16 19 20 22 23 22 16 9 6 6 3 3 11 17 19 19 16 17 17 13 10 12 16 23
5 6 8 8 7 7 6 5 6 7 8 9 11 12 13 14 14 16 18 20 19 17 18 17 15 16 16 16 16 15 14 14 15 17 18 18 19 21 23 22 21 20 20 18 17 17 18 17 17 17 18 18 18 18 17 17 17 14 14 14 15 15 16 18 20 24 24 20 13 8 9 9 10 14 12 9 17 20 17 13 10 11 12 10 13
5 7 9 8 8 9 8 8 7 7 8 9 10 12 13 14 14 15 18 19 17 17 17 16 16 16 14 14 15 14 14 14 15 17 18 18 19 21 23 22 19 18 17 17 16 16 17 17 17 17 18 18 17 17 16 16 15 14 14 15 15 15 16 16 19 22 23 22 19 15 16 17 15 14 9 6 12 15 15 16 17 16 14 12 11
4 6 8 9 10 11 10 9 9 8 9 9 10 12 13 14 14 15 16 16 15 15 15 15 16 15 13 14 14 13 14 15 15 16 16 17 18 19 19 18 17 16 16 16 15 16 16 16 17 16 16 16 16 15 15 15 15 15 16 16 16 17 17 18 18 18 19 22 24 22 19 18 17 16 15 13 8 8 14 19 22 23 19 17 15
6 6 8 10 11 12 11 10 9 9 10 9 9 11 12 13 14 14 15 14 14 13 14 15 15 13 13 13 14 14 15 15 16 16 16 16 17 16 16 17 18 18 17 17 17 17 17 18 18 18 18 18 16 15 15 16 16 15 15 14 15 15 15 15 17 18 18 21 23 22 20 19 19 18 18 17 11 8 9 9 16 23 22 22 19
6 9 12 12 11 12 12 10 10 11 10 9 9 10 12 13 14 14 14 13 13 13 13 14 15 13 13 13 14 15 16 17 17 16 16 16 15 16 17 18 19 19 18 18 18 18 19 19 18 18 18 17 15 16 17 18 17 17 17 16 16 15 15 15 16 17 19 20 21 20 19 17 16 15 14 14 12 10 9 6 9 13 14 21 25
6 8 13 13 11 12 13 11 11 11 9 8 9 10 11 13 13 14 13 12 13 13 14 15 15 14 13 14 15 15 16 16 16 16 16 16 15 16 18 18 19 19 19 19 19 19 19 19 18 17 18 17 17 18 18 18 19 19 19 18 18 18 17 17 17 18 19 20 21 21 19 16 14 14 15 16 13 9 9 8 9 11 11 18 25
5 6 10 12 11 13 14 12 12 11 9 9 10 11 11 12 12 14 14 13 13 14 14 15 14 14 14 15 15 15 15 16 17 17 17 16 17 18 19 19 20 20 21 21 20 20 20 19 19 19 19 19 19 18 18 18 18 17 16 16 16 16 16 16 18 19 18 19 21 22 21 19 18 18 18 20 18 15 13 9 9 13 10 14 22
6 6 7 10 11 14 15 13 12 11 10 9 10 10 11 11 12 13 14 14 14 13 13 14 14 14 15 15 15 14 15 16 18 18 17 17 18 18 19 19 21 22 22 22 22 21 21 21 21 21 21 21 20 20 20 20 19 18 18 17 16 16 15 15 16 17 17 17 18 20 20 20 19 19 20 21 21 20 17 10 11 14 10 10 17
7 6 7 9 12 14 14 13 12 11 10 10 10 10 11 12 12 13 13 14 14 13 12 13 14 14 15 15 14 14 15 16 17 16 16 17 18 18 20 21 21 22 22 22 22 22 22 22 22 22 22 22 22 23 23 22 21 20 20 19 18 17 16 15 15 14 14 15 15 17 18 19 19 19 20 21 22 21 18 13 11 12 11 11 11
7 7 8 11 14 14 14 13 12 10 10 11 11 11 12 12 12 12 13 13 13 13 12 13 14 15 15 14 14 14 14 15 15 15 16 18 19 20 21 21 21 21 21 21 22 22 23 23 22 22 22 22 23 23 23 22 21 21 20 20 20 19 17 17 16 15 16 16 16 17 18 19 19 18 19 21 22 22 21 19 14 9 9 9 7
7 7 8 12 15 15 14 14 12 11 11 11 12 12 12 12 12 12 13 13 13 13 13 14 15 15 14 13 13 14 14 15 16 16 17 19 20 20 21 21 21 21 22 22 22 22 22 22 22 22 23 23 23 22 22 23 22 21 21 21 20 20 19 18 18 18 18 18 18 19 20 20 20 19 19 20 22 22 21 21 17 10 7 6 5
8 7 8 12 15 16 17 15 13 12 12 12 12 12 12 13 12 12 12 12 13 13 15 16 16 15 13 12 13 14 15 16 17 17 18 19 19 19 21 21 21 21 23 23 22 22 22 23 23 24 24 24 24 23 23 23 22 22 21 21 20 20 20 19 19 18 19 19 19 19 20 21 20 19 19 20 22 23 22 21 19 14 10 6 4
8 8 10 14 16 18 18 16 14 13 12 13 13 12 13 13 13 13 12 12 12 14 15 16 16 14 13 13 14 15 15 16 16 17 17 19 20 20 20 21 22 22 23 23 23 24 24 24 24 24 24 24 23 22 22 21 21 22 21 21 21 20 20 20 19 19 19 19 20 20 20 20 19 18 18 19 20 21 21 21 22 20 15 10 6
7 7 8 12 17 19 19 17 15 13 13 13 12 12 13 14 14 13 12 13 13 14 15 15 15 15 14 14 14 14 15 15 16 17 18 19 20 20 20 22 22 22 22 23 25 25 25 24 24 24 23 23 22 21 21 21 21 22 22 22 21 20 20 21 21 20 20 20 21 22 22 22 20 18 18 18 19 20 19 19 21 22 20 17 13
8 8 8 12 17 20 19 17 16 14 14 13 13 14 14 14 14 14 14 14 14 14 14 14 15 15 15 14 14 14 15 16 16 17 18 19 19 20 21 21 21 21 22 24 25 25 25 24 24 23 22 22 22 21 21 21 21 22 22 22 22 21 21 22 22 21 21 21 22 23 24 24 23 21 21 21 21 21 20 19 19 20 20 19 18
8 8 8 12 17 19 18 17 15 14 14 13 13 14 14 14 15 15 15 14 14 14 14 14 14 14 15 15 15 15 15 17 17 17 18 19 20 20 20 20 20 22 23 24 25 25 25 25 24 23 23 22 22 22 22 21 22 22 22 23 23 22 23 23 22 22 22 21 21 22 23 23 22 22 23 23 22 22 22 20 18 18 18 18 17
9 9 9 12 16 18 18 17 16 15 14 13 14 14 14 14 15 15 15 14 14 14 13 14 14 15 16 15 15 16 17 18 18 18 19 19 19 18 19 20 22 22 22 22 23 24 25 24 24 24 23 22 23 22 22 22 22 23 23 23 23 23 23 24 23 24 24 23 23 23 22 21 20 20 21 21 21 22 23 22 20 19 19 19 17
9 9 10 13 16 17 17 17 17 16 15 14 14 14 14 14 15 15 16 15 15 14 14 14 15 16 17 16 17 18 18 19 19 19 19 18 17 18 19 21 22 21 21 21 22 24 25 25 24 24 22 21 21 21 21 22 22 23 23 23 23 23 23 24 24 25 25 25 25 25 26 25 23 22 21 20 20 20 20 20 21 21 21 21 20
9 8 10 13 15 15 16 17 18 17 16 14 14 14 14 15 15 16 17 16 16 15 14 15 16 16 16 16 17 18 19 19 19 20 19 18 18 19 20 20 20 20 20 21 23 23 23 22 22 22 21 20 20 21 21 23 24 24 25 25 25 24 25 25 26 26 26 27 27 27 26 25 25 25 24 22 20 20 19 18 19 20 20 21 22
9 8 8 10 12 13 16 18 19 18 17 15 14 14 15 15 16 16 17 16 16 15 15 15 15 16 16 17 18 19 19 19 20 20 19 18 18 19 19 19 19 20 21 22 22 20 19 19 20 20 20 21 21 21 22 24 25 25 25 26 26 26 27 27 27 28 28 28 28 28 27 26 25 25 24 23 22 22 22 21 21 21 20 20 21
10 9 8 9 10 13 16 18 19 19 17 16 15 15 15 15 16 16 16 15 15 15 15 15 15 15 16 17 18 18 18 19 19 19 18 19 19 19 19 19 20 21 21 21 20 18 18 19 19 20 21 22 22 22 23 24 25 26 26 27 27 27 28 28 28 29 29 29 29 29 29 28 27 26 26 25 24 24 25 25 25 24 22 21 21
9 8 8 9 9 12 16 19 19 19 18 16 15 15 15 16 16 15 15 14 14 14 14 14 15 16 16 17 17 17 18 18 18 18 19 20 19 19 19 20 21 21 21 20 19 18 18 19 20 21 21 23 24 24 25 26 27 27 27 27 27 27 28 28 29 29 29 30 30 31 30 30 30 30 29 28 27 26 27 27 27 26 24 21 21
8 8 9 9 10 11 14 18 19 19 18 16 15 15 15 16 16 15 14 14 13 13 14 15 15 16 16 16 16 16 17 17 18 19 19 19 19 19 20 21 21 21 21 21 20 19 20 20 20 21 22 23 24 25 27 28 28 28 27 27 28 27 27 28 28 29 29 30 31 31 32 32 32 32 32 31 30 29 28 29 29 27 25 22 21
10 10 10 11 10 10 13 18 21 19 18 17 15 14 15 15 16 15 15 15 14 13 14 15 16 16 15 15 15 16 17 17 18 19 19 19 20 21 21 21 21 21 21 21 21 21 21 21 21 21 22 23 24 27 29 29 28 27 26 27 28 28 28 28 28 28 29 30 31 32 33 33 33 33 32 31 30 29 28 30 31 29 27 25 22
11 12 11 11 11 11 14 19 21 21 20 18 16 16 15 16 16 16 15 14 13 14 15 15 15 15 14 15 16 16 17 17 17 18 18 19 21 21 21 21 21 21 22 21 21 21 20 19 20 20 22 24 26 28 29 28 27 27 27 28 28 29 30 29 28 29 30 30 31 32 33 33 33 32 30 29 29 29 29 29 30 30 29 27 24
12 12 11 10 11 11 12 17 21 23 22 20 18 17 16 16 16 16 15 14 13 14 15 15 15 15 15 16 15 15 16 16 17 18 19 20 21 21 22 22 22 21 21 21 21 20 19 19 19 21 22 24 26 27 27 27 27 27 28 28 28 30 31 31 30 30 31 31 31 32 33 32 32 32 30 29 28 29 29 29 29 29 30 29 28
12 11 10 10 11 10 12 18 23 24 22 21 19 17 16 17 16 15 14 14 14 15 15 15 15 16 16 15 14 15 16 16 17 19 19 20 21 22 22 22 22 21 21 21 21 21 21 20 19 21 22 23 25 25 25 27 28 27 27 27 29 29 29 30 31 31 32 32 31 31 32 32 33 32 32 31 30 29 29 29 29 29 30 32 32
12 11 11 11 11 12 16 22 26 25 24 22 20 18 18 17 16 15 14 14 15 15 15 16 16 16 16 16 15 15 16 17 18 18 19 20 21 22 22 22 22 21 20 21 21 21 21 20 19 20 21 23 24 24 24 26 27 27 28 29 29 31 30 29 30 31 32 31 31 31 31 32 33 32 31 31 32 32 31 30 31 30 31 32 34
11 11 11 10 11 15 20 24 26 25 24 21 19 19 18 17 15 15 15 15 15 16 16 16 16 16 16 15 15 15 16 17 17 18 19 21 21 22 22 21 22 21 20 21 21 21 21 19 19 20 21 23 23 22 23 25 26 28 28 23 19 22 30 32 30 31 31 31 31 30 30 32 32 31 31 31 31 32 32 32 33 33 34 35 35
12 12 11 10 12 15 19 23 25 24 23 21 20 19 18 16 16 15 16 16 16 16 17 17 17 17 16 15 15 15 16 16 17 18 19 20 20 21 21 21 21 21 21 21 20 21 21 20 19 20 21 23 22 21 22 24 25 26 22 16 16 12 18 28 31 30 30 30 31 30 30 32 32 31 32 32 31 32 32 31 32 34 36 38 38
12 12 12 14 17 20 22 25 25 24 23 22 22 20 18 17 17 17 17 17 16 17 17 17 17 16 15 15 15 15 15 16 17 18 19 19 20 20 21 21 21 21 21 20 19 20 21 21 21 20 21 23 21 19 21 23 23 23 19 14 15 16 11 14 24 27 28 29 30 29 30 31 32 32 33 31 30 31 31 31 32 33 35 36 38
14 16 17 20 22 23 24 24 24 23 24 24 21 19 18 18 19 19 19 18 17 18 19 18 17 16 15 14 15 14 15 16 17 18 18 19 20 21 21 20 20 21 20 19 19 20 21 21 22 21 21 22 21 19 20 21 20 21 19 14 13 14 15 13 13 17 22 26 28 29 30 30 31 32 34 33 30 28 29 31 32 33 34 34 36
16 17 18 19 21 22 22 22 22 24 25 23 21 20 19 19 20 21 19 19 19 20 19 18 16 15 14 14 14 14 15 16 17 17 18 19 21 22 21 19 19 20 19 19 20 21 21 21 21 21 20 21 22 19 19 19 17 19 19 15 12 12 13 13 14 14 15 18 21 25 27 29 31 31 32 33 30 29 30 31 32 33 32 32 36
20 19 19 21 22 22 21 21 22 24 25 22 20 20 19 21 22 21 20 20 21 21 20 17 15 14 14 14 14 15 15 15 16 17 18 19 20 20 20 18 18 18 19 19 19 20 22 21 20 20 20 19 20 19 17 17 16 17 19 17 13 12 12 12 14 15 14 14 15 18 19 22 26 28 29 30 29 29 31 33 34 32 29 32 38
20 21 22 22 22 21 21 23 25 27 25 22 21 20 21 23 23 21 21 23 24 22 18 15 14 14 14 14 14 14 15 15 16 17 17 17 17 18 18 18 18 18 19 20 20 19 21 21 20 20 19 17 18 17 15 16 17 17 18 19 16 13 12 14 15 15 13 13 14 16 16 16 18 21 24 26 27 28 30 33 34 31 29 35 39
21 22 22 20 21 24 26 27 28 27 24 23 22 22 24 25 23 22 25 26 23 19 15 14 14 14 14 14 14 13 14 15 15 15 15 15 14 16 17 17 18 19 19 20 20 19 20 21 20 19 17 15 14 14 14 15 17 17 17 18 18 16 15 16 17 15 12 13 15 16 15 16 17 20 22 22 24 26 27 29 32 34 36 39 37
19 20 22 22 22 24 27 28 27 25 24 24 23 25 26 25 23 26 28 25 20 17 15 14 14 14 14 14 13 13 14 13 12 11 12 13 13 13 15 16 17 18 19 19 19 18 19 20 19 17 16 14 11 11 15 17 18 18 17 17 17 17 17 17 16 14 12 14 16 16 17 19 20 20 20 21 22 24 25 25 26 31 37 40 36
17 20 24 24 22 23 29 31 28 25 25 24 25 27 27 25 26 30 27 22 18 17 15 15 15 15 14 13 13 13 12 11 10 9 10 12 12 12 13 15 16 17 18 18 19 17 18 20 19 17 15 13 10 12 17 18 18 18 17 17 17 16 16 16 16 15 15 16 17 18 19 20 19 19 20 22 23 24 24 24 23 22 27 34 36
19 22 24 25 23 24 28 30 28 26 26 26 27 28 27 27 30 29 23 19 18 17 16 16 16 15 14 13 12 11 10 9 8 7 8 10 10 11 13 14 15 15 16 17 18 17 17 18 19 19 17 13 11 14 17 17 17 17 17 17 16 16 16 17 17 17 17 18 19 19 19 20 20 20 21 20 20 21 21 21 21 19 18 23 30
21 22 23 25 25 24 24 26 28 28 28 29 29 29 29 30 31 26 21 19 18 17 17 17 16 15 14 13 12 10 8 7 6 5 7 8 9 11 13 14 14 14 15 16 17 17 16 16 18 18 16 12 12 16 17 17 17 16 16 17 16 17 17 17 18 18 19 18 18 17 18 19 18 17 16 16 16 16 16 16 18 18 17 17 21
19 20 22 24 23 21 20 23 27 30 31 31 31 31 32 32 29 23 21 20 18 17 18 18 17 16 14 12 12 10 7 6 5 4 5 7 8 10 12 13 14 14 14 15 16 16 16 16 16 14 11 10 13 15 16 17 17 18 19 18 17 17 18 19 19 18 16 15 15 15 15 15 15 14 13 12 13 13 13 13 13 14 16 16 17
20 22 22 21 20 19 20 22 26 31 33 32 32 33 33 31 27 23 21 19 18 18 19 19 18 17 15 13 12 9 6 5 4 4 4 5 6 7 10 12 13 14 14 14 14 15 17 16 13 9 9 11 12 14 15 18 19 20 20 18 17 18 21 21 18 14 12 12 13 12 11 11 12 11 9 7 7 8 8 9 8 8 10 13 16
22 22 20 20 21 22 22 22 25 31 34 34 34 34 33 30 27 25 22 20 20 20 20 20 19 17 15 14 12 9 7 6 5 4 3 4 4 5 7 10 11 13 14 15 16 18 17 12 8 8 10 11 11 13 16 18 19 19 18 17 17 20 20 15 10 9 10 11 10 8 6 6 6 6 5 5 6 6 7 8 9 8 8 7 10
24 21 21 22 23 24 24 25 26 30 33 34 34 34 32 30 28 27 24 23 22 21 20 20 19 18 17 15 12 10 8 6 5 4 3 3 4 4 7 9 10 11 13 15 17 16 12 9 9 9 9 10 11 15 17 17 17 16 15 16 17 17 13 9 7 8 10 8 4 5 7 8 10 11 10 11 12 12 11 11 12 12 13 10 6
26 21 20 23 25 26 25 25 27 28 29 33 34 33 31 30 29 27 26 25 24 22 21 21 20 19 18 16 13 11 8 7 6 4 3 3 3 4 7 9 10 10 11 12 12 10 8 9 10 9 8 9 13 15 15 15 15 14 15 15 13 11 10 9 8 7 6 3 6 9 11 12 13 13 12 12 13 14 13 13 14 14 14 14 14
28 21 18 21 24 25 24 26 28 27 27 32 33 31 30 30 29 28 27 26 25 24 23 23 22 21 19 16 14 12 9 8 7 5 3 4 4 3 3 4 7 9 9 8 7 7 7 9 9 9 9 10 12 13 13 13 13 13 14 13 10 9 9 8 6 3 2 7 10 10 11 13 13 12 11 12 13 13 14 14 14 14 14 15 16
Wind_Direction
288 328 351 4 5 332 349 351 346 346 345 343 345 343 338 338 340 341 342 342 343 347 347 340 339 340 337 337 336 335 333 334 342 342 340 342 341 342 355 9 4 345 330 308 301 305 310 317 326 330 326 326 333 336 336 334 336 341 343 344 348 351 351 351 352 353 354 348 337 329 328 330 326 319 312 297 288 291 293 293 286 274 269 269 277
290 327 354 7 226 285 324 337 347 345 339 338 341 339 335 337 340 341 341 341 343 348 346 339 341 341 335 334 332 331 330 328 331 334 335 336 341 342 342 352 359 360 1 3 353 344 345 342 341 340 330 324 329 331 332 330 330 334 338 341 342 345 348 347 350 357 360 348 336 328 331 335 335 336 329 312 308 304 292 288 288 280 271 266 271
294 325 340 252 224 271 308 340 346 334 329 330 332 333 333 336 336 336 339 341 343 346 342 336 339 338 331 332 331 327 325 322 322 331 332 327 334 341 339 341 345 346 350 359 2 358 358 354 354 356 344 336 334 332 331 330 331 332 336 340 338 337 339 339 344 354 356 346 342 334 333 334 330 349 348 325 326 325 307 299 290 281 275 269 267
288 301 283 230 223 252 293 328 321 313 317 322 328 331 333 334 332 334 340 341 341 343 339 336 336 333 331 332 331 330 326 321 322 333 337 332 331 336 337 338 338 338 338 341 343 342 342 342 344 345 342 341 339 336 336 334 333 332 331 335 336 336 335 333 332 337 347 350 348 328 326 327 311 348 338 319 320 325 317 324 314 288 278 271 266
248 263 248 231 227 239 267 286 282 299 308 317 327 330 333 331 329 335 340 341 340 339 339 340 337 332 333 334 334 336 334 333 336 339 340 337 333 330 331 332 333 333 331 333 336 336 335 335 334 329 325 325 323 326 328 326 325 326 327 327 331 333 330 327 322 323 332 338 335 319 318 328 308 330 328 313 315 315 307 318 332 326 301 278 270
232 242 235 232 233 236 245 252 265 287 298 314 325 327 329 327 328 335 339 339 337 337 339 338 335 332 333 334 333 333 332 332 333 332 331 330 325 321 322 325 328 328 327 329 331 331 330 329 328 324 320 319 317 318 318 319 319 319 322 320 319 321 321 322 319 316 319 319 321 310 297 301 306 318 323 307 311 312 307 309 317 335 337 314 288
246 242 234 237 243 239 240 243 256 276 290 309 319 321 323 323 327 333 337 339 336 335 336 333 333 331 328 328 326 322 321 320 320 320 319 318 317 317 320 324 329 330 330 331 330 328 327 326 325 324 322 321 320 318 316 316 316 313 312 310 309 310 312 315 315 315 315 311 311 308 301 300 298 302 303 297 311 310 305 304 301 309 322 329 324
237 237 233 240 249 245 239 238 249 271 287 300 311 314 317 318 322 329 338 343 339 334 331 329 331 329 324 323 319 315 314 313 314 314 314 313 315 319 323 326 329 331 329 329 327 326 325 323 323 323 321 321 320 317 315 313 311 310 308 306 304 302 304 306 307 309 308 303 305 306 303 304 301 297 292 289 295 299 301 303 302 303 305 311 320
225 230 231 243 255 247 236 237 250 269 281 292 305 308 310 314 317 326 337 343 341 332 324 325 329 326 322 319 314 312 311 310 311 312 312 314 316 319 322 322 322 323 323 323 322 321 320 318 318 317 316 317 316 312 310 310 309 309 308 308 306 302 300 300 300 299 297 295 297 297 299 305 307 301 293 288 282 276 288 299 300 304 307 303 301
230 232 231 244 261 247 233 238 252 266 277 288 298 300 304 308 313 323 329 333 335 327 319 322 326 323 318 312 309 309 309 310 310 310 312 315 315 316 318 319 319 320 321 321 321 320 320 320 319 318 317 316 313 309 310 310 309 306 304 303 302 300 298 294 293 293 293 292 288 286 290 299 305 304 295 290 286 275 273 282 287 291 302 297 294
234 234 234 245 259 242 231 240 253 263 272 282 288 290 297 302 309 319 320 318 323 321 315 317 319 317 311 306 304 306 308 310 309 308 311 313 312 314 316 317 317 318 319 319 320 320 322 321 320 318 317 315 312 311 312 312 311 308 305 302 299 298 297 294 291 290 291 291 284 278 280 284 288 291 294 295 292 283 279 283 284 278 276 282 288
232 233 234 243 246 230 229 244 254 258 263 272 278 280 288 295 304 314 311 307 311 313 311 312 314 312 308 305 302 302 304 306 307 306 307 309 311 313 314 315 316 317 318 319 319 320 321 319 317 315 314 313 310 309 309 310 311 310 307 303 300 298 296 293 289 288 289 288 283 277 275 274 274 276 286 292 288 284 286 285 287 289 281 276 284
231 229 231 235 233 228 233 246 249 249 257 264 267 270 278 288 300 308 304 299 303 307 308 310 312 309 307 306 303 301 301 302 304 302 303 306 308 310 312 314 314 314 316 317 318 319 317 315 314 312 310 308 306 304 303 304 304 303 302 301 300 298 296 293 289 286 283 282 283 282 277 271 269 271 280 288 288 285 283 282 284 285 279 277 284
228 226 227 228 229 232 238 242 240 242 251 253 255 263 273 285 298 303 298 294 298 303 305 307 308 307 307 304 302 302 301 299 300 300 302 305 306 308 309 309 308 309 311 312 313 314 312 310 309 307 304 303 301 300 300 300 298 297 296 296 296 296 294 292 290 286 282 282 285 288 285 278 273 272 276 282 286 284 278 277 282 281 276 276 279
228 227 227 229 230 233 235 233 230 236 245 247 253 262 272 287 297 298 294 293 297 300 302 304 306 307 304 299 297 299 299 297 296 298 301 303 304 305 306 306 304 304 306 307 308 307 306 306 305 303 301 300 299 298 297 296 295 294 293 292 291 291 289 287 285 284 283 285 287 289 288 284 278 276 277 278 282 283 279 274 273 275 278 276 271
226 225 229 231 230 229 227 225 227 236 243 247 256 265 274 287 294 296 294 293 295 299 301 302 304 305 299 293 292 293 294 293 293 296 298 300 302 302 303 303 302 302 304 304 304 304 302 302 301 300 299 297 296 295 293 292 291 290 289 288 288 287 285 282 279 279 280 281 284 286 285 282 280 279 279 277 279 283 282 273 267 261 262 270 268
225 224 228 228 225 223 223 224 229 236 242 249 258 268 278 287 292 294 292 289 293 300 302 302 303 300 291 286 288 290 291 290 291 294 298 298 298 299 301 300 300 301 302 303 302 302 300 299 298 297 296 295 294 292 291 290 289 287 285 284 284 284 282 280 277 275 275 278 280 282 283 283 282 280 278 276 277 282 283 275 267 260 256 258 261
229 228 228 226 222 221 222 225 231 238 245 254 262 271 280 287 290 291 287 283 289 299 302 300 297 292 285 283 287 289 288 287 289 292 294 295 296 298 299 298 300 301 300 301 301 301 301 299 297 295 295 295 293 291 289 288 286 284 283 282 281 280 279 277 276 274 272 274 277 278 280 282 282 281 279 277 278 282 285 279 269 262 258 250 238
233 231 228 225 221 220 222 225 231 238 246 255 265 273 278 282 285 286 282 281 287 297 299 294 288 285 281 282 285 288 287 285 287 290 292 294 295 296 297 298 300 300 299 300 301 301 301 299 297 295 294 292 291 289 287 286 284 281 280 279 278 277 276 275 274 273 271 271 272 274 276 278 280 280 279 280 282 285 289 287 275 262 256 249 240
230 228 226 223 221 222 224 226 232 238 245 253 263 270 273 277 280 280 278 277 283 293 297 291 284 281 278 280 284 286 286 284 286 290 292 293 294 295 296 297 298 298 299 300 301 300 300 299 297 294 292 290 288 287 285 283 281 279 277 276 275 274 273 273 273 272 271 270 269 270 272 273 275 276 276 280 283 284 288 293 287 271 258 251 242
231 227 225 223 222 223 224 228 234 237 241 250 258 264 269 273 276 276 272 271 277 289 293 286 280 277 276 280 284 285 285 285 287 290 291 292 295 296 295 294 295 297 299 300 300 300 299 298 295 292 290 287 285 284 283 281 279 278 277 275 274 272 270 270 270 269 269 268 269 269 270 271 272 272 272 275 277 280 285 290 293 283 269 259 248
229 225 223 221 220 220 221 224 227 230 236 246 253 258 263 269 273 270 264 265 275 285 287 280 275 275 278 281 283 283 284 286 287 288 289 292 295 294 293 293 296 298 299 299 299 299 299 297 294 291 288 285 283 282 281 279 277 275 275 274 272 270 268 267 267 266 266 267 268 268 270 272 274 273 271 272 274 277 282 285 288 286 278 269 259
229 225 223 219 219 219 219 220 222 226 234 243 249 254 261 269 269 262 258 264 276 284 282 274 271 275 279 281 281 283 285 287 287 288 289 291 291 290 292 294 296 297 298 299 298 298 297 295 292 289 286 283 281 280 279 277 274 272 272 271 270 268 265 264 263 263 264 265 266 267 268 270 272 273 273 272 273 276 280 284 286 287 283 274 264
230 226 223 219 219 217 214 216 219 225 233 241 249 256 262 268 264 256 257 267 278 282 277 271 272 277 278 278 280 284 286 287 287 288 289 289 288 290 293 293 294 296 297 298 298 298 296 293 290 287 284 282 280 278 277 275 273 271 270 269 268 266 264 262 261 261 262 263 264 265 266 267 269 270 270 269 270 273 277 282 287 290 288 281 270
229 225 224 217 215 213 213 216 219 225 235 243 252 258 261 261 257 254 260 270 278 279 273 271 274 277 277 278 280 284 286 286 287 288 287 287 289 292 293 293 293 294 295 297 298 297 293 289 287 285 283 281 280 278 277 275 273 272 270 268 267 265 263 262 261 260 260 260 260 261 263 265 266 265 263 264 266 270 273 276 282 287 291 291 281
226 222 219 216 215 215 215 218 220 226 234 243 250 255 256 254 251 253 261 269 275 274 271 272 273 276 279 280 280 282 284 285 287 286 285 288 292 293 292 292 292 293 294 295 294 292 289 287 285 284 283 281 280 277 275 275 275 273 271 269 267 265 263 262 260 259 258 257 258 258 259 260 260 259 260 263 265 268 271 273 276 281 287 294 291
227 222 220 219 219 220 218 218 221 225 232 238 244 248 249 247 247 252 260 267 271 270 268 269 272 276 279 279 279 281 283 284 284 284 286 290 292 292 291 292 293 294 293 293 291 289 286 285 284 284 283 281 280 277 275 277 277 276 273 270 267 265 263 262 261 259 258 257 256 256 257 257 256 257 259 261 263 264 267 269 271 274 280 287 292
229 223 222 222 221 221 219 217 219 223 228 234 240 244 244 243 246 253 261 266 267 264 262 266 272 277 276 275 279 281 283 283 283 285 288 290 291 291 293 295 294 293 292 292 291 289 288 287 286 284 282 282 280 277 278 282 282 278 273 270 268 265 262 262 261 259 257 256 255 255 255 255 255 256 257 258 260 261 263 264 265 267 271 276 283
234 230 224 223 224 222 218 216 216 219 224 230 236 238 238 240 245 253 261 265 262 258 259 267 272 273 270 272 279 282 283 283 284 286 288 289 292 294 295 296 295 294 293 293 293 292 291 289 288 286 284 284 281 280 283 284 282 279 275 272 271 268 264 261 260 260 258 256 255 255 254 254 254 254 254 254 255 256 256 258 259 260 263 265 270
236 234 227 222 224 223 218 215 214 217 222 228 231 234 236 240 246 253 260 261 257 254 259 267 269 265 266 275 281 282 283 283 284 286 289 291 294 296 296 296 296 295 296 296 296 294 290 286 287 290 290 289 285 285 286 281 275 274 273 271 269 268 266 261 257 257 258 256 255 255 255 256 255 252 251 251 251 251 250 250 252 253 254 255 257
242 237 230 224 223 220 216 213 213 218 223 227 231 235 239 242 247 253 257 256 253 254 260 265 265 264 270 277 279 280 281 282 284 287 291 293 295 297 297 297 297 298 298 298 296 293 289 286 288 291 292 291 289 289 289 283 276 274 273 270 267 265 264 261 256 253 255 256 256 255 255 256 254 251 249 249 249 248 247 246 246 246 246 247 247
247 238 228 223 220 214 213 214 216 219 222 225 230 232 235 240 245 250 254 253 252 255 259 261 263 268 273 275 275 278 280 282 285 289 292 295 296 297 298 298 298 299 300 299 296 293 290 290 291 292 292 293 295 298 296 288 283 282 279 273 267 261 259 258 254 252 254 255 255 255 255 255 254 253 252 251 249 247 245 244 243 244 243 242 242
248 241 231 225 220 216 217 218 218 219 222 226 228 229 233 240 245 249 251 250 251 255 258 259 262 267 271 274 276 277 280 283 287 291 293 295 297 297 298 298 299 300 300 298 296 294 294 294 294 294 296 297 300 305 304 296 291 290 287 282 273 260 252 252 253 252 253 254 253 254 254 255 255 254 252 251 250 249 247 244 243 244 244 244 243
247 240 233 225 221 221 221 221 221 222 225 228 228 230 236 241 244 246 246 247 251 254 254 256 262 266 270 274 276 276 280 285 287 291 294 297 298 298 298 299 299 300 299 298 298 298 297 298 298 298 300 301 303 309 308 301 298 298 299 305 299 268 249 247 249 251 251 252 253 252 252 255 256 253 250 248 248 249 248 246 245 245 245 244 243
248 240 235 226 219 218 218 220 221 222 222 222 224 229 234 237 239 240 242 247 251 252 252 256 261 267 270 271 272 277 281 284 288 293 296 297 297 297 298 299 299 299 299 300 301 300 300 301 303 303 302 302 306 314 310 302 303 308 315 338 352 320 262 247 247 249 251 253 254 252 252 255 256 255 253 250 246 247 246 245 246 246 246 246 244
240 232 227 222 217 216 218 220 220 219 217 219 223 226 227 229 234 237 240 246 248 248 252 256 260 264 267 268 272 278 281 284 290 295 296 298 297 297 298 300 300 300 301 301 302 302 302 303 304 305 303 303 310 320 315 308 309 316 329 353 1 355 332 274 256 252 251 255 256 253 252 254 255 256 257 253 246 243 243 240 242 244 246 247 247
239 234 231 227 223 221 222 221 217 216 217 219 222 223 223 226 230 233 237 242 245 248 252 255 259 261 263 267 273 277 280 286 291 294 295 296 297 298 300 301 300 300 301 301 302 302 303 302 303 306 306 305 313 323 319 313 313 316 329 353 1 354 355 339 301 275 263 260 260 258 256 256 255 258 261 258 246 239 238 238 239 241 243 245 248
237 232 228 225 221 219 219 217 213 216 220 221 221 221 220 223 226 230 236 240 244 249 251 254 257 260 262 268 273 276 280 286 290 291 292 295 297 299 300 301 300 297 297 299 301 302 303 302 302 306 308 305 309 317 316 313 316 319 324 342 360 354 346 342 334 319 297 282 275 271 265 260 258 263 268 264 252 238 235 236 237 239 239 240 245
238 230 222 220 216 214 213 210 210 217 221 220 221 222 219 222 226 230 235 240 244 249 252 254 258 261 264 267 271 275 279 284 287 288 291 296 298 299 300 301 298 293 293 297 299 299 301 304 305 307 310 307 306 314 318 314 317 322 324 331 346 351 340 328 324 320 312 305 298 291 280 268 264 267 272 271 261 246 236 234 235 236 235 240 246
237 231 226 221 212 204 202 204 211 220 222 220 221 221 221 225 230 232 237 243 248 252 253 254 257 261 264 266 269 274 278 281 284 289 294 297 297 299 300 299 296 294 294 295 298 298 298 303 307 309 312 312 310 313 319 318 317 320 322 326 332 337 332 321 312 306 303 303 302 296 288 277 272 273 274 274 268 258 246 237 233 229 230 242 249
237 231 224 215 207 205 207 213 220 223 221 219 218 218 223 230 232 234 241 249 254 254 251 251 255 259 262 266 269 272 277 282 286 291 295 296 298 299 298 297 297 298 296 295 298 300 298 301 307 311 313 317 316 316 320 322 319 318 317 319 323 326 321 311 302 298 300 301 295 286 281 282 284 283 280 277 274 270 263 250 237 230 235 245 249
241 231 220 211 208 210 213 218 222 219 217 217 215 217 224 229 231 238 247 254 256 252 249 250 254 259 262 265 268 273 279 285 288 291 293 296 300 301 299 299 298 296 295 296 299 300 300 303 310 315 316 318 319 323 327 324 318 314 314 314 315 315 310 305 302 300 303 301 292 285 286 288 286 283 280 278 276 276 276 271 256 243 242 246 244
240 230 221 212 210 212 215 219 219 215 215 214 212 217 223 226 233 244 252 256 253 250 250 250 254 258 261 264 269 275 281 284 283 288 293 296 301 304 302 300 297 294 295 296 298 301 305 307 313 318 316 313 315 324 329 326 318 313 312 311 310 308 303 304 306 307 304 299 291 288 290 290 286 283 282 281 279 278 278 280 278 266 252 245 238
243 234 224 215 214 216 217 219 217 213 213 212 213 218 221 225 237 247 252 252 249 248 249 249 253 259 262 265 272 277 280 278 276 282 289 294 302 306 303 300 297 295 293 292 297 304 305 305 310 311 305 303 318 329 330 327 320 313 312 312 310 306 305 306 307 304 298 291 286 286 288 290 289 288 285 283 282 280 279 280 281 281 274 254 238
252 244 229 219 219 219 215 216 215 213 213 214 216 217 218 228 240 246 246 247 247 245 246 249 253 258 262 267 273 276 274 269 261 267 286 297 302 303 301 300 299 297 293 292 298 304 304 301 300 296 295 305 326 332 331 329 322 316 315 315 312 309 309 307 303 300 295 289 286 288 294 296 295 294 294 294 293 289 286 287 284 279 279 269 248
256 246 234 223 220 220 216 214 214 214 214 215 217 218 222 232 241 240 240 245 244 241 245 250 253 257 263 267 270 272 267 251 239 254 282 293 298 299 299 299 298 298 297 296 298 301 301 297 291 290 302 323 330 331 331 327 323 318 314 313 313 313 311 307 305 303 297 292 293 297 301 301 300 301 303 301 298 291 287 292 291 279 272 266 254
262 250 238 222 214 216 217 214 214 215 215 216 217 221 228 235 237 236 237 241 239 239 245 250 251 255 261 263 265 268 261 241 236 254 273 282 290 295 296 295 296 297 298 299 300 298 294 292 294 309 324 326 327 330 326 319 316 315 314 316 319 316 312 311 313 312 303 299 301 301 296 293 292 295 297 298 301 302 299 302 305 299 285 269 254
277 259 237 217 213 217 217 216 218 218 217 216 219 224 229 231 231 232 234 234 235 239 244 247 251 255 258 259 260 260 253 244 243 247 257 274 284 288 293 297 297 296 293 293 293 290 289 294 316 332 327 323 324 322 317 314 314 316 321 326 322 314 313 319 327 322 310 305 305 304 302 306 314 322 335 353 0 4 4 359 356 350 338 304 262
290 268 240 222 220 222 219 218 222 222 217 216 220 225 227 227 228 230 229 229 233 238 241 244 249 253 254 255 255 252 246 242 243 243 251 268 271 278 291 297 296 290 284 282 282 285 292 318 337 332 325 322 316 310 311 314 318 322 327 324 317 316 325 344 348 325 313 309 323 360 12 15 14 14 13 11 9 9 8 9 10 8 6 6 353
301 279 248 232 228 227 225 224 226 225 218 216 220 223 223 224 227 227 225 226 230 234 237 241 245 248 250 250 249 247 241 235 240 251 266 266 255 258 275 283 285 284 282 282 286 293 309 324 328 328 327 316 305 306 314 320 322 327 326 320 324 340 353 356 345 318 312 358 37 30 29 27 19 15 13 6 2 1 0 1 3 4 7 11 13
306 287 255 241 235 231 229 229 229 226 219 217 220 221 220 222 225 224 223 225 226 228 232 236 240 243 246 246 245 244 238 230 234 246 267 284 287 276 266 276 281 286 291 293 296 308 318 320 321 326 327 319 310 314 322 323 325 332 328 325 347 15 9 357 351 321 359 43 37 27 25 23 18 15 11 1 355 355 355 355 355 356 2 8 9